MPEC 2004-L22 : 2004 LK

The following Minor Planet Electronic Circular may be linked-to from your own Web pages, but must not otherwise be redistributed electronically.


Read MPEC 2004-L21 Read MPEC 2004-L23


M.P.E.C. 2004-L22                                Issued 2004 June 10, 10:55 UT

     The Minor Planet Electronic Circulars contain information on unusual
         minor planets and routine data on comets.  They are published
   on behalf of Commission 20 of the International Astronomical Union by the
          Minor Planet Center, Smithsonian Astrophysical Observatory,
                          Cambridge, MA 02138, U.S.A.

         Supported in part by the Steven and Michele Kirsch Foundation
             Prepared using the Tamkin Foundation Computer Network

                              MPC@CFA.HARVARD.EDU
          URL http://cfa-www.harvard.edu/iau/mpc.html  ISSN 1523-6714

                                    2004 LK

Observations:
     K04L00K* C2004 06 09.51598 15 29 48.74 -18 28 35.3          20.4 R EL022E12
     K04L00K  C2004 06 09.52281 15 29 47.98 -18 28 55.0                 EL022E12
     K04L00K  C2004 06 09.52964 15 29 47.17 -18 29 15.9          19.5 R EL022E12
     K04L00K  C2004 06 09.53645 15 29 46.34 -18 29 37.1          20.3 R EL022E12
     K04L00K  C2004 06 09.56865 15 29 42.58 -18 31 11.9          18.9 R EL022E12
     K04L00K  C2004 06 09.56979 15 29 42.44 -18 31 15.9          19.3 R EL022E12
     K04L00K  C2004 06 09.57094 15 29 42.29 -18 31 19.2          19.3 R EL022E12
     K04L00K  C2004 06 09.57207 15 29 42.19 -18 31 22.9          20.2 R EL022E12
     K04L00K  C2004 06 09.57461 15 29 41.83 -18 31 29.6          20.1 R EL022E12
     K04L00K  C2004 06 09.57693 15 29 41.62 -18 31 36.8          19.6 R EL022E12
     K04L00K  C2004 06 09.57926 15 29 41.34 -18 31 44.3          19.7 R EL022E12
     K04L00K  C2004 06 09.58155 15 29 41.08 -18 31 50.4          19.1 R EL022E12
     K04L00K  C2004 06 09.67752 15 29 30.54 -18 36 35.0          19.3 R EL022E12
     K04L00K  C2004 06 09.68779 15 29 29.40 -18 37 04.6          20.0 R EL022E12
     K04L00K  C2004 06 10.17074 15 28 47.27 -19 02 53.4          19.6 R EL022G90
     K04L00K  C2004 06 10.17428 15 28 46.83 -19 03 05.0          19.5 R EL022G90
     K04L00K  C2004 06 10.17784 15 28 46.44 -19 03 16.0          19.6 R EL022G90

Observer details:
E12 Siding Spring Survey.  Observers R. H. McNaught, S. Larson, E. Beshore,
    E. Christensen, R. Hill, D. McLean.  0.5-m Uppsala Schmidt + CCD.
G90 Three Buttes Observatory, Tucson.  Observer G. R. Jones.  0.4-m
    Ritchey-Chretien + CCD.

Orbital elements:
2004 LK
Epoch 2004 June 4.0 TT = JDT 2453160.5                  MPC
M 341.17455              (2000.0)            P               Q
n   0.35765307     Peri.  229.38564     +0.57529485     +0.80709108
a   1.9655982      Node    76.22127     -0.70309004     +0.57092365
e   0.4775006      Incl.    7.85984     -0.41797157     +0.15049972
P   2.76           H   22.7           G   0.15
From 17 observations 2004 June 9-10.

Ephemeris:
2004 LK                  a,e,i = 1.97, 0.48, 8                   q = 1.0270
Date    TT    R. A. (2000) Decl.     Delta      r     Elong.  Phase     V
2004 06 04    15 37.84   -14 34.1    0.183    1.189   161.4    15.8    20.3
2004 06 14    15 22.19   -22 45.5    0.138    1.138   150.5    26.0    19.9
2004 06 24    14 59.58   -37 22.2    0.104    1.095   136.7    39.5    19.6
2004 07 04    14 11.07   -60 52.8    0.084    1.060   119.2    56.8    19.5
2004 07 14    08 32.07   -80 07.5    0.085    1.038   102.1    73.3    20.0
2004 07 24    04 32.30   -63 10.3    0.103    1.027    93.6    80.6    20.6
2004 08 03    03 55.86   -49 07.5    0.130    1.031    93.4    79.3    21.1
2004 08 13    03 39.75   -40 01.6    0.159    1.047    97.9    73.5    21.4
2004 08 23    03 26.94   -33 50.3    0.188    1.075   105.0    65.3    21.5
2004 09 02    03 12.89   -29 13.9    0.216    1.114   114.0    55.8    21.6
2004 09 12    02 55.91   -25 26.7    0.243    1.162   124.4    45.6    21.7
2004 09 22    02 35.98   -21 56.2    0.275    1.216   135.7    35.2    21.8
2004 10 02    02 15.09   -18 23.7    0.314    1.275   146.7    25.6    21.9

Timothy B. Spahr             (C) Copyright 2004 MPC           M.P.E.C. 2004-L22

Read MPEC 2004-L21 Read MPEC 2004-L23


Our Web policy. Index to the CBAT/MPC/ICQ pages.

MPC